SALSAT (46495 NORAD) Tracking and Keplerian Element Data

This shows tracking and keplerian element data for the satellite.

Feedback or suggestion? Click here.




ElementValue
Catalog46495
NameSALSAT
Epoch Orbit22211
Epoch Day286.81975203
Epoch Year2024
RAAN249.3773
Inclination97.8304
Eccentricity0.0010398
Argument of Perigee271.4872
Mean Anonmoly88.5168
Mean Motion15.16217825
Decay Rate0.00016858
L11 46495U 20068K 24286.81975203 .00016858 00000+0 87354-3 0 9998
L22 46495 97.8304 249.3773 0010398 271.4872 88.5168 15.16217825222110



Live tracking and technical data element details for SALSAT (NORAD 46495). SALSAT can be tracked NOW for your location showing map with azimuth and elevation plus other details from your city location.







IsCatalogInMostPopularTable: catalog: 46495, numindb: 198
Update: records affected: 1



GetName: 46495 SALSAT

Hit Count: updated at: Sat, 25 Jan 2025 00:19:35 GMT